Погода в Аральске

Погода в Аральске : погода сейчас, прогноз погоды и архив. Всё, что Вы хотите узнать о погоде в Аральске!

Хотите узнать прогноз погоды в Аральске? Тогда Вам сюда: Погода в Аральске

Поиск расширенной информации на нашем сайте:

Другие новости

Новости СМИ2

Главная страница сайта

Новости сайта

02.10.2013

Напоминаем, что на нашем новом сайте вы можете получить высокодетализированные прогнозы погоды по пунктам России, СНГ и мира (включающие важные для авиации метеовеличины, такие как направление и скорость ветра, видимость, явления погоды, количество и форма облачности, нижняя и верхняя граница облачности), а также ознакомиться с разнообразными материалами по авиационной метеорологии и подборкой полезных ссылок на эту тему.

Сайт Метеоцентр.Азия посвящён разработке технологий оптимизации авиаметеорологического обслуживания, включая проектирование и перспективное создание нескольких автоматизированных авиаметеорологических систем:
- система выпуска высокодетальных прогностических карт явлений погоды для нижнего воздушного пространства по России и ближнему зарубежью;
- система верификации прогнозов TAF (выпускаемых синоптиками официальных АМСГ РФ и ближнего зарубежья) и AUTOTAF (выпускаемых сайтом Метеоцентр.Азия) - выявление ошибок, онлайн-сопоставление с фактической погодой METAR, автоматическое внесение коррективов в прогнозы при резком отклонении фактической погоды от прогноза, подсчёт оправдываемости прогнозов по элементам и в целом;
- система обработки, анализа и отображения авиаметеорологической информации для применения провайдерами метеорологической информации.

Рекомендуем: вызвать курьера по москве

Погода в Аральске - сегодня

Время (UTC), дата Ветер
(°,м/с) 
Видим.   Явления Облачность Т
(°С)
Тd
(°С)
f(%) Тe
(°С)
Pmin
(гПа)
dP
(гПа)
Po
(мм)
O2
(г/м3)
Тmin Tmax R s Состояние
почвы
00 20.04.17 070 (В) н/о    3/0 верхняя 
[Ci fib]
+12.6 -2.5 35 +11  1012.7  -0.9  755  291           
03 20.04.17 080 (В) 20000 м    8/0 верхняя 
[Ci sp]
+13.8 -0.7 37 +13  1012.5  -0.2  755  289           
06 20.04.17 080 (В) 20000 м    8/0 верхняя 
[Ci sp]
+22.4 +5.1 32 +22  1010.8  -1.4  754  280  +11.5         
09 20.04.17 130 (ЮВ) 20000 м    9/0 верхняя 
[Ci sp]
+26.4 +5.1 26 +26  1008.7  -2.1  752  276           
12 20.04.17 100 (В) 20000 м    10/0 средняя 
[Ac und]
+25.2 +3.2 24 +25  1007.1  -1.6  751  276           
15 20.04.17 240 (ЮЗ) 20000 м    10/6 600 м средняя 
[Sc|Ac und]
+19.1 +9.3 53 +19  1006.8  -0.4  750  281    +26.7       
18 20.04.17 240 (ЮЗ) н/о    4/0 средняя 
[Ac lent]
+15.3 +9.5 68 +17  1007  0.1  751  285    +26.7       
21 20.04.17 240 (ЮЗ) н/о    10/0 средняя 
[Ac und]
+16 +9 63 +16  1005  -2  749  284           
00 21.04.17 200 (Ю) н/о    10/0 средняя 
[Ac As]
+14.8 +8.6 66 +14  1004.1  -0.9  748  285           
03 21.04.17 220 (ЮЗ) 20000 м  {дождь}  10/4 600 м средняя, верхняя 
[Sc|Ac As|Ci fib]
+14.3 +9.7 74 +15  1004.4  0.3  749  285      0.0     
06 21.04.17 180 (Ю) 20000 м  {дождь}  8/3 1000 м средняя, верхняя 
[Cu hum|Ac und|Ci sp]
+19.3 +11.3 60 +23  1004.2  -0.1  749  280  +13.8    0.0     
09 21.04.17 360 (С) 8{15}  20000 м  пыльный позёмок  8/3 600 м кучево-дожд., средняя, верхняя 
[Cb calv|Ac und|Ci sp]
+23.2 +7.6 37 +23  1004.8  0.7  749  277           
12 21.04.17 350 (С) 20000 м  {ливн. осадки}  9/8 600 м кучево-дожд., средняя, верхняя 
[Cb calv|Ac und|Ci sp]
+20.6 +9.2 48 +21  1006.8  1.9  750  280           
15 21.04.17 320 (СЗ) 20000 м    3/0 средняя 
[Ac lent]
+20.5 +4.5 35 +21  1009.6  2.8  753  281    +24.2  0.0     
18 21.04.17 310 (СЗ) н/о    ясно 
+14.9 -2.2 31 +15  1013.5  3.7  755  289    +24.2  0.0     
21 21.04.17 010 (С) н/о    ясно 
+10.3 -3.8 37 +9  1016.3  2.7  757  294           
00 22.04.17 350 (С) н/о    8/0 верхняя 
[Ci fib]
+7 -3.6 47 +5  1018.6  2.2  759  299           
06 22.04.17 050 (СВ) 20000 м    1/0 верхняя 
[Ci fib]
+12 -4.7 31 +11  1020.9  0.6  761  294  +5.5         
09 22.04.17 120 (ЮВ) 20000 м    4/0 верхняя 
[Ci sp]
+18 -9.8 14 +19  1019.4  -1.3  760  288           
12 22.04.17 140 (ЮВ) 20000 м    9/0 верхняя 
[Cs]
+20.1 -8.6 14 +20  1017.4  -2  758  285           
15 22.04.17 130 (ЮВ) 20000 м    9/0 верхняя 
[Ci sp]
+18.1 -1.2 27 +18  1015.6  -1.8  757  286    +20.4       
18 22.04.17 130 (ЮВ) н/о    6/0 верхняя 
[Ci sp]
+16.1 +2.3 39 +16  1013.9  -1.8  756  287    +20.4       
21 22.04.17 160 (Ю) 11-15{15}  н/о  пыльный позёмок  10/0 средняя 
[Ac As]
+17.6 +6.8 49 +17  1010.7  -3  753  284           
00 23.04.17 290 (З) 9{21}  н/о  слаб. ливневой дождь  10/10 600 м кучево-дожд. 
[Cb calv]
+8.4 +8 97 +6  1016.2  5.2  757  295           
03 23.04.17 250 (З) 20000 м  {ливн. осадки}  ясно 
+9.1 +6.5 84 +8  1018.8  2.6  759  295      0.4     
Время (UTC), дата Ветер
(°,м/с) 
Видим.   Явления Облачность Т
(°С)
Тd
(°С)
f(%) Тe
(°С)
Pmin
(гПа)
dP
(гПа)
Po
(мм)
O2
(г/м3)
Тmin Tmax R s Состояние
почвы

Для получения пояснительной информации подведите курсор к названию столбца.

ПОГОДА в Аральске - архив

Всё, что Вы хотите узнать о погоде в Аральске - удобно и подробно!

Выберите нужную дату (начиная с 1 января 2015* года) и нажмите кнопку "Найти".
Будут отображены архивные сводки погоды по пункту Аральск, начиная с указанной даты.


Отображать данные в формате CSV (для использования в таблицах Excel)


Внимание! Наш архив погоды предназначен исключительно для личного некоммерческого использования в познавательных целях. Если Вам необходимы официальные справки о состоянии погоды (для производственных, юридических, коммерческих и т.п. целей), обращайтесь в органы Росгидромета.

*Примечание: данная дата относится к архиву по метеостанциям СССР (Россия, СНГ, Балтия).
Архив по метеостанциям Зарубежной Европы и Азии (кроме Китая) хранится 10 дней, по другим регионам земного шара (Китай, Африка, Америка, Австралия, Океания) - 1 день.

Аральск - район местоположения метеостанции


Название, широта, долгота, высота метеостанции:
Аральск 46.8°ш. 61.6°д. 62 м над ур. моря [Казахстан]

Дополнительная информация

В oтличие oт бoльшинства пoгoдных сайтoв мы публикуем пoдрoбную метеoинфoрмацию в детальнoм прoфессиoнальнoм фoрмате.

Характеристики температуры и влажнoсти вoздуха измеряются на высoте 2 м в тени вдали oт зданий и деревьев.
Скoрoсть ветра измеряется на высoте 10 м (на урoвне рoста челoвека скoрoсть ветра ниже в 1.5-2 раза). Если метеoстанция нахoдится в гoрoде или в лесу, тo скoрoсть ветра занижена на 2-4 м/с пo сравнению с oткрытым местoм. Скoрoсть ветра над акватoриями крупных рек и oзёр, а также на вершинах хoлмoв на 2-5 м/с выше, чем в oбычных услoвиях.
Атмoсфернoе давление в разных тoчках местнoсти мoжет значительнo oтличаться oт давления на метеoстанции, в зависимoсти oт услoвий рельефа (при пoдъёме на 10 м давление пoнижается примернo на 1 мм рт.ст.).